TimeEST,TemperatureF,Dew PointF,Humidity,Sea Level PressureIn,VisibilityMPH,Wind Direction,Wind SpeedMPH,Gust SpeedMPH,PrecipitationIn,Events,Conditions,WindDirDegrees,DateUTC
12:53 AM,30.9,23.0,72,30.08,10.0,West,12.7,-,N/A,,Mostly Cloudy,270,2013-02-03 05:53:00
1:53 AM,30.0,19.9,66,30.07,10.0,West,9.2,-,N/A,,Overcast,270,2013-02-03 06:53:00
2:53 AM,28.9,19.0,67,30.06,10.0,WNW,9.2,-,N/A,,Overcast,300,2013-02-03 07:53:00
3:53 AM,28.0,19.9,72,30.04,10.0,West,4.6,-,N/A,,Overcast,280,2013-02-03 08:53:00
4:53 AM,28.0,19.9,72,30.02,10.0,West,4.6,-,N/A,,Overcast,270,2013-02-03 09:53:00
5:53 AM,28.0,19.0,69,30.01,10.0,WNW,6.9,-,N/A,,Overcast,290,2013-02-03 10:53:00
6:48 AM,28.4,19.4,69,29.99,9.0,WNW,4.6,-,N/A,,Overcast,300,2013-02-03 11:48:00
6:53 AM,28.0,19.9,72,30.01,8.0,WNW,4.6,-,0.00,Snow,Light Snow,290,2013-02-03 11:53:00
7:53 AM,26.1,21.9,84,30.02,3.0,NNW,4.6,-,0.00,Snow,Snow,330,2013-02-03 12:53:00
8:36 AM,26.6,21.2,80,30.01,1.8,NW,5.8,-,0.00,Snow,Snow,320,2013-02-03 13:36:00
8:53 AM,26.1,21.0,81,30.03,2.0,NW,4.6,-,0.01,Snow,Snow,320,2013-02-03 13:53:00
9:53 AM,26.1,21.0,81,30.04,5.0,NNW,4.6,-,0.00,,Haze,340,2013-02-03 14:53:00
10:53 AM,27.0,21.9,81,30.04,5.0,Calm,Calm,-,N/A,,Haze,0,2013-02-03 15:53:00
11:53 AM,28.0,23.0,81,30.06,5.0,Calm,Calm,-,N/A,,Haze,0,2013-02-03 16:53:00
12:53 PM,30.0,25.0,82,30.07,7.0,West,15.0,-,N/A,,Overcast,280,2013-02-03 17:53:00
1:37 PM,30.2,24.8,80,30.06,7.0,WNW,12.7,-,N/A,,Overcast,290,2013-02-03 18:37:00
1:53 PM,30.0,24.1,79,30.08,6.0,West,11.5,-,N/A,,Haze,280,2013-02-03 18:53:00
2:53 PM,30.0,21.9,72,30.10,8.0,WNW,10.4,23.0,N/A,,Overcast,290,2013-02-03 19:53:00
3:53 PM,30.0,21.0,69,30.12,10.0,WNW,10.4,20.7,N/A,,Overcast,290,2013-02-03 20:53:00
4:53 PM,30.0,21.0,69,30.13,10.0,West,6.9,-,N/A,,Overcast,280,2013-02-03 21:53:00
5:00 PM,30.2,21.2,69,30.11,10.0,West,6.9,-,N/A,,Overcast,280,2013-02-03 22:00:00
5:45 PM,30.2,21.2,69,30.13,10.0,WNW,6.9,-,N/A,,Overcast,300,2013-02-03 22:45:00
5:53 PM,30.0,21.9,72,30.15,10.0,WNW,6.9,-,N/A,,Overcast,300,2013-02-03 22:53:00
6:53 PM,30.0,21.0,69,30.17,10.0,WNW,11.5,-,N/A,,Overcast,300,2013-02-03 23:53:00
7:53 PM,28.9,17.1,61,30.18,10.0,West,12.7,-,N/A,,Mostly Cloudy,270,2013-02-04 00:53:00
8:53 PM,26.1,15.1,63,30.19,10.0,West,5.8,-,N/A,,Clear,280,2013-02-04 01:53:00
9:53 PM,24.1,16.0,71,30.19,10.0,Calm,Calm,-,N/A,,Clear,0,2013-02-04 02:53:00
10:53 PM,24.1,16.0,71,30.19,10.0,Calm,Calm,-,N/A,,Clear,0,2013-02-04 03:53:00
11:53 PM,23.0,17.1,78,30.17,10.0,Calm,Calm,-,N/A,,Clear,0,2013-02-04 04:53:00